QPF
0.01 0.01 0.02 0.02 0.02 0.02 0.02 0.02 0.02 0.02 0.03 0.04 0.06 0.06 0.04 0.03 0.03 0.03 0.04 0.03 0.02 0.03 0.03 0.03 0.03 0.02 0.01 0.01 0.01 0.02 0.03 0.03 0.03 0.02 0.01 0.00 0.01 0.01 0.01 0.01 0.01 0.01 0.01
0.01 0.02 0.02 0.02 0.02 0.02 0.01 0.02 0.02 0.03 0.04 0.05 0.07 0.07 0.06 0.04 0.03 0.04 0.05 0.05 0.04 0.04 0.05 0.03 0.02 0.01 0.01 0.01 0.01 0.02 0.02 0.02 0.02 0.03 0.02 0.01 0.01 0.02 0.02 0.01 0.01 0.01 0.02
0.01 0.01 0.01 0.01 0.01 0.01 0.01 0.02 0.02 0.04 0.05 0.08 0.10 0.10 0.10 0.08 0.05 0.04 0.04 0.05 0.06 0.08 0.08 0.02 0.01 0.01 0.01 0.01 0.01 0.02 0.02 0.03 0.03 0.02 0.02 0.01 0.01 0.01 0.01 0.01 0.02 0.03 0.04
0.01 0.01 0.01 0.02 0.02 0.01 0.02 0.02 0.02 0.03 0.04 0.06 0.08 0.11 0.12 0.13 0.10 0.07 0.06 0.07 0.06 0.05 0.04 0.02 0.01 0.01 0.01 0.01 0.02 0.02 0.02 0.02 0.03 0.03 0.01 0.01 0.00 0.00 0.00 0.01 0.02 0.03 0.03
0.01 0.01 0.01 0.02 0.03 0.03 0.03 0.02 0.02 0.03 0.04 0.06 0.08 0.12 0.13 0.12 0.12 0.10 0.09 0.09 0.06 0.04 0.03 0.03 0.03 0.02 0.01 0.01 0.02 0.02 0.02 0.01 0.02 0.03 0.02 0.01 0.01 0.00 0.00 0.00 0.01 0.03 0.02
0.00 0.01 0.01 0.03 0.04 0.04 0.04 0.05 0.06 0.07 0.08 0.10 0.11 0.14 0.17 0.17 0.13 0.09 0.07 0.07 0.06 0.04 0.03 0.02 0.03 0.03 0.03 0.04 0.04 0.02 0.01 0.02 0.02 0.02 0.02 0.01 0.01 0.01 0.01 0.01 0.01 0.03 0.03
0.01 0.01 0.03 0.04 0.04 0.06 0.06 0.06 0.07 0.11 0.13 0.11 0.11 0.12 0.12 0.11 0.08 0.06 0.05 0.05 0.04 0.04 0.04 0.04 0.03 0.04 0.05 0.05 0.04 0.03 0.02 0.01 0.01 0.02 0.02 0.01 0.01 0.02 0.02 0.02 0.01 0.03 0.02
0.02 0.02 0.04 0.06 0.06 0.06 0.07 0.06 0.06 0.06 0.09 0.09 0.10 0.11 0.09 0.07 0.05 0.04 0.04 0.03 0.02 0.02 0.03 0.03 0.03 0.02 0.04 0.05 0.05 0.05 0.03 0.02 0.02 0.03 0.03 0.03 0.03 0.03 0.03 0.02 0.02 0.04 0.02
0.02 0.03 0.04 0.06 0.08 0.10 0.14 0.11 0.07 0.08 0.10 0.10 0.09 0.09 0.08 0.07 0.06 0.05 0.04 0.03 0.02 0.02 0.02 0.01 0.02 0.02 0.03 0.03 0.04 0.03 0.03 0.03 0.03 0.04 0.04 0.03 0.03 0.03 0.03 0.02 0.02 0.05 0.03
0.04 0.05 0.05 0.06 0.07 0.11 0.14 0.10 0.09 0.09 0.09 0.08 0.07 0.06 0.07 0.07 0.06 0.05 0.04 0.03 0.02 0.02 0.02 0.01 0.01 0.02 0.02 0.03 0.02 0.02 0.02 0.03 0.03 0.04 0.04 0.04 0.05 0.06 0.07 0.05 0.04 0.04 0.04
0.05 0.05 0.05 0.06 0.06 0.05 0.06 0.07 0.09 0.12 0.11 0.09 0.10 0.09 0.09 0.09 0.09 0.07 0.05 0.03 0.03 0.02 0.02 0.02 0.03 0.03 0.03 0.03 0.03 0.03 0.03 0.03 0.03 0.03 0.03 0.03 0.04 0.04 0.04 0.04 0.04 0.05 0.05
0.04 0.04 0.04 0.07 0.09 0.08 0.08 0.09 0.09 0.10 0.09 0.07 0.09 0.14 0.15 0.15 0.14 0.09 0.07 0.05 0.02 0.02 0.02 0.03 0.04 0.04 0.04 0.05 0.04 0.04 0.04 0.04 0.04 0.04 0.03 0.02 0.02 0.02 0.02 0.02 0.03 0.05 0.06
0.03 0.04 0.05 0.08 0.09 0.08 0.07 0.08 0.05 0.05 0.07 0.08 0.07 0.09 0.13 0.14 0.15 0.12 0.08 0.06 0.04 0.04 0.04 0.04 0.04 0.04 0.04 0.05 0.05 0.05 0.04 0.04 0.04 0.04 0.04 0.04 0.03 0.02 0.01 0.01 0.02 0.03 0.04
0.03 0.04 0.04 0.04 0.04 0.04 0.04 0.05 0.05 0.04 0.06 0.08 0.09 0.08 0.10 0.11 0.10 0.10 0.08 0.07 0.08 0.07 0.06 0.06 0.07 0.07 0.06 0.04 0.04 0.03 0.03 0.03 0.03 0.02 0.03 0.03 0.03 0.03 0.02 0.01 0.02 0.03 0.03
0.02 0.02 0.02 0.02 0.03 0.03 0.04 0.06 0.06 0.05 0.06 0.06 0.09 0.11 0.11 0.08 0.06 0.07 0.09 0.08 0.07 0.08 0.07 0.06 0.05 0.05 0.05 0.04 0.03 0.03 0.03 0.03 0.03 0.02 0.02 0.02 0.03 0.04 0.03 0.02 0.02 0.02 0.02
0.02 0.02 0.02 0.02 0.02 0.04 0.04 0.06 0.05 0.05 0.05 0.05 0.07 0.10 0.09 0.07 0.07 0.08 0.10 0.08 0.06 0.07 0.05 0.03 0.03 0.03 0.04 0.04 0.04 0.04 0.04 0.04 0.04 0.03 0.03 0.03 0.03 0.04 0.03 0.03 0.02 0.02 0.01
0.02 0.01 0.01 0.01 0.01 0.02 0.03 0.04 0.05 0.06 0.06 0.06 0.08 0.09 0.08 0.07 0.07 0.09 0.08 0.07 0.06 0.05 0.03 0.02 0.02 0.02 0.03 0.04 0.04 0.05 0.05 0.05 0.04 0.04 0.04 0.03 0.03 0.04 0.03 0.02 0.02 0.02 0.01
0.02 0.01 0.01 0.01 0.01 0.01 0.02 0.03 0.04 0.04 0.05 0.06 0.06 0.05 0.04 0.04 0.04 0.05 0.06 0.05 0.06 0.05 0.03 0.02 0.03 0.03 0.03 0.04 0.03 0.04 0.05 0.05 0.05 0.05 0.05 0.05 0.04 0.04 0.04 0.03 0.03 0.01 0.01
0.01 0.01 0.01 0.02 0.01 0.01 0.01 0.02 0.03 0.03 0.03 0.04 0.03 0.03 0.02 0.03 0.03 0.03 0.03 0.03 0.04 0.07 0.07 0.05 0.04 0.03 0.03 0.03 0.03 0.04 0.06 0.06 0.07 0.07 0.07 0.06 0.05 0.05 0.05 0.04 0.03 0.01 0.01
0.02 0.01 0.01 0.02 0.02 0.01 0.02 0.02 0.02 0.02 0.02 0.04 0.04 0.03 0.03 0.03 0.03 0.02 0.02 0.02 0.02 0.05 0.08 0.10 0.08 0.04 0.03 0.04 0.06 0.08 0.09 0.11 0.13 0.14 0.13 0.11 0.08 0.06 0.05 0.03 0.03 0.02 0.01
0.02 0.02 0.01 0.01 0.02 0.02 0.02 0.02 0.03 0.02 0.03 0.04 0.05 0.04 0.04 0.04 0.05 0.05 0.04 0.04 0.03 0.03 0.05 0.06 0.08 0.08 0.05 0.04 0.06 0.08 0.09 0.09 0.12 0.11 0.10 0.09 0.08 0.06 0.06 0.04 0.04 0.03 0.02
0.02 0.03 0.04 0.02 0.02 0.03 0.03 0.03 0.03 0.03 0.03 0.04 0.04 0.03 0.03 0.03 0.04 0.05 0.05 0.05 0.05 0.05 0.05 0.05 0.05 0.07 0.07 0.05 0.04 0.04 0.04 0.05 0.06 0.07 0.07 0.06 0.07 0.06 0.05 0.04 0.04 0.03 0.02
0.01 0.01 0.01 0.01 0.03 0.05 0.03 0.04 0.04 0.04 0.05 0.06 0.05 0.04 0.03 0.03 0.03 0.03 0.04 0.05 0.04 0.05 0.06 0.05 0.06 0.06 0.06 0.06 0.05 0.04 0.03 0.03 0.04 0.06 0.08 0.07 0.07 0.07 0.05 0.04 0.04 0.03 0.02
0.00 0.00 0.00 0.00 0.01 0.03 0.04 0.04 0.05 0.06 0.05 0.06 0.05 0.05 0.05 0.04 0.03 0.03 0.04 0.05 0.05 0.05 0.05 0.05 0.04 0.04 0.04 0.04 0.04 0.04 0.02 0.03 0.04 0.06 0.09 0.09 0.07 0.07 0.06 0.04 0.03 0.03 0.02
0.01 0.00 0.00 0.00 0.01 0.02 0.02 0.04 0.05 0.06 0.07 0.07 0.06 0.06 0.06 0.05 0.04 0.05 0.05 0.06 0.05 0.06 0.07 0.06 0.05 0.04 0.03 0.04 0.05 0.04 0.03 0.02 0.03 0.06 0.07 0.08 0.07 0.07 0.05 0.04 0.03 0.02 0.01
0.02 0.01 0.01 0.01 0.01 0.01 0.02 0.03 0.04 0.06 0.07 0.07 0.07 0.07 0.07 0.06 0.05 0.04 0.04 0.04 0.05 0.05 0.06 0.07 0.07 0.05 0.04 0.04 0.03 0.04 0.05 0.05 0.04 0.05 0.05 0.06 0.05 0.05 0.04 0.03 0.03 0.02 0.02
MSLP
1010.12 1010.37 1010.61 1010.81 1010.94 1010.98 1010.95 1010.88 1010.81 1010.75 1010.75 1010.81 1010.91 1011.04 1011.18 1011.31 1011.42 1011.50 1011.56 1011.64 1011.75 1011.92 1012.17 1012.49 1012.89 1013.33 1013.81 1014.30 1014.76 1015.19 1015.58 1015.92 1016.22 1016.49 1016.72 1016.92 1017.08 1017.19 1017.25 1017.25 1017.19 1017.07 1016.90
1010.00 1010.22 1010.47 1010.72 1010.91 1011.04 1011.11 1011.15 1011.19 1011.25 1011.36 1011.51 1011.69 1011.88 1012.06 1012.20 1012.31 1012.37 1012.42 1012.48 1012.57 1012.73 1012.96 1013.26 1013.61 1014.00 1014.39 1014.77 1015.13 1015.45 1015.74 1016.02 1016.30 1016.58 1016.87 1017.16 1017.42 1017.63 1017.76 1017.79 1017.74 1017.59 1017.38
1009.83 1010.03 1010.29 1010.57 1010.83 1011.03 1011.20 1011.34 1011.48 1011.65 1011.86 1012.11 1012.37 1012.62 1012.84 1013.01 1013.11 1013.17 1013.21 1013.25 1013.32 1013.45 1013.65 1013.90 1014.19 1014.50 1014.79 1015.05 1015.28 1015.49 1015.70 1015.92 1016.19 1016.50 1016.85 1017.22 1017.57 1017.87 1018.08 1018.17 1018.13 1017.98 1017.74
1009.67 1009.84 1010.12 1010.44 1010.74 1011.01 1011.25 1011.47 1011.69 1011.95 1012.23 1012.55 1012.88 1013.18 1013.44 1013.63 1013.75 1013.82 1013.85 1013.88 1013.93 1014.04 1014.20 1014.40 1014.63 1014.85 1015.04 1015.20 1015.33 1015.44 1015.57 1015.75 1015.99 1016.32 1016.72 1017.15 1017.59 1017.96 1018.23 1018.37 1018.36 1018.21 1017.96
1009.53 1009.71 1010.00 1010.35 1010.70 1011.02 1011.30 1011.57 1011.84 1012.14 1012.47 1012.83 1013.19 1013.54 1013.83 1014.05 1014.19 1014.27 1014.30 1014.33 1014.38 1014.47 1014.61 1014.77 1014.95 1015.11 1015.23 1015.31 1015.36 1015.40 1015.47 1015.60 1015.82 1016.15 1016.56 1017.03 1017.51 1017.93 1018.25 1018.42 1018.43 1018.30 1018.05
1009.45 1009.65 1009.97 1010.35 1010.73 1011.07 1011.38 1011.66 1011.94 1012.24 1012.58 1012.95 1013.34 1013.70 1014.01 1014.26 1014.42 1014.52 1014.58 1014.63 1014.68 1014.77 1014.90 1015.05 1015.20 1015.32 1015.41 1015.45 1015.45 1015.45 1015.47 1015.56 1015.75 1016.05 1016.45 1016.92 1017.39 1017.83 1018.16 1018.36 1018.39 1018.28 1018.05
1009.47 1009.68 1010.04 1010.44 1010.83 1011.18 1011.48 1011.74 1012.00 1012.29 1012.61 1012.97 1013.35 1013.72 1014.05 1014.32 1014.51 1014.64 1014.73 1014.80 1014.88 1014.98 1015.11 1015.27 1015.42 1015.54 1015.62 1015.65 1015.64 1015.62 1015.62 1015.67 1015.82 1016.07 1016.42 1016.83 1017.28 1017.69 1018.02 1018.22 1018.28 1018.19 1017.99
1009.57 1009.81 1010.18 1010.59 1010.98 1011.31 1011.58 1011.81 1012.03 1012.28 1012.57 1012.91 1013.28 1013.66 1014.00 1014.30 1014.53 1014.70 1014.82 1014.91 1015.02 1015.14 1015.28 1015.45 1015.62 1015.76 1015.87 1015.92 1015.92 1015.90 1015.88 1015.91 1016.01 1016.19 1016.47 1016.81 1017.18 1017.55 1017.85 1018.05 1018.12 1018.07 1017.91
1009.75 1009.99 1010.36 1010.75 1011.11 1011.41 1011.64 1011.82 1012.00 1012.21 1012.48 1012.80 1013.17 1013.56 1013.94 1014.27 1014.54 1014.74 1014.90 1015.02 1015.14 1015.27 1015.43 1015.61 1015.80 1015.98 1016.11 1016.20 1016.24 1016.24 1016.22 1016.22 1016.27 1016.39 1016.58 1016.83 1017.12 1017.42 1017.68 1017.87 1017.97 1017.96 1017.85
1009.98 1010.21 1010.54 1010.89 1011.20 1011.43 1011.60 1011.74 1011.88 1012.07 1012.32 1012.65 1013.04 1013.47 1013.88 1014.26 1014.57 1014.82 1015.00 1015.14 1015.27 1015.40 1015.56 1015.75 1015.95 1016.15 1016.32 1016.45 1016.53 1016.56 1016.56 1016.55 1016.56 1016.61 1016.72 1016.89 1017.10 1017.33 1017.55 1017.73 1017.84 1017.87 1017.81
1010.20 1010.39 1010.66 1010.93 1011.16 1011.32 1011.43 1011.52 1011.64 1011.82 1012.09 1012.45 1012.88 1013.35 1013.83 1014.26 1014.63 1014.91 1015.12 1015.27 1015.40 1015.52 1015.67 1015.84 1016.04 1016.25 1016.45 1016.62 1016.74 1016.81 1016.83 1016.83 1016.82 1016.83 1016.88 1016.97 1017.11 1017.27 1017.46 1017.63 1017.75 1017.81 1017.79
1010.37 1010.50 1010.67 1010.85 1010.98 1011.05 1011.10 1011.15 1011.26 1011.45 1011.75 1012.16 1012.65 1013.20 1013.74 1014.25 1014.67 1015.00 1015.24 1015.40 1015.52 1015.63 1015.75 1015.90 1016.08 1016.28 1016.50 1016.69 1016.85 1016.96 1017.02 1017.04 1017.03 1017.02 1017.02 1017.06 1017.14 1017.26 1017.41 1017.56 1017.69 1017.77 1017.79
1010.42 1010.47 1010.53 1010.59 1010.61 1010.61 1010.59 1010.62 1010.72 1010.94 1011.29 1011.76 1012.33 1012.96 1013.58 1014.16 1014.66 1015.04 1015.31 1015.50 1015.62 1015.71 1015.80 1015.92 1016.08 1016.27 1016.48 1016.70 1016.88 1017.03 1017.13 1017.18 1017.19 1017.17 1017.16 1017.17 1017.21 1017.29 1017.39 1017.52 1017.64 1017.74 1017.77
1010.30 1010.24 1010.20 1010.14 1010.07 1009.99 1009.93 1009.94 1010.06 1010.31 1010.71 1011.25 1011.90 1012.60 1013.31 1013.96 1014.53 1014.98 1015.31 1015.53 1015.67 1015.76 1015.84 1015.95 1016.08 1016.25 1016.46 1016.67 1016.88 1017.05 1017.19 1017.27 1017.30 1017.31 1017.30 1017.29 1017.30 1017.34 1017.41 1017.50 1017.60 1017.67 1017.70
1009.93 1009.79 1009.65 1009.49 1009.34 1009.21 1009.12 1009.14 1009.28 1009.58 1010.03 1010.63 1011.33 1012.10 1012.88 1013.62 1014.26 1014.79 1015.19 1015.48 1015.67 1015.79 1015.89 1015.99 1016.11 1016.27 1016.45 1016.66 1016.87 1017.07 1017.22 1017.34 1017.40 1017.43 1017.43 1017.42 1017.41 1017.42 1017.44 1017.49 1017.54 1017.57 1017.57
1009.29 1009.07 1008.86 1008.64 1008.45 1008.30 1008.22 1008.26 1008.43 1008.77 1009.27 1009.90 1010.65 1011.47 1012.31 1013.11 1013.84 1014.46 1014.95 1015.33 1015.60 1015.79 1015.94 1016.06 1016.18 1016.33 1016.51 1016.70 1016.90 1017.09 1017.27 1017.40 1017.49 1017.55 1017.56 1017.55 1017.53 1017.51 1017.49 1017.48 1017.46 1017.43 1017.37
1008.36 1008.10 1007.84 1007.61 1007.42 1007.29 1007.25 1007.33 1007.55 1007.93 1008.45 1009.11 1009.88 1010.73 1011.60 1012.46 1013.27 1013.99 1014.60 1015.09 1015.47 1015.76 1015.98 1016.15 1016.30 1016.45 1016.60 1016.77 1016.96 1017.14 1017.31 1017.46 1017.57 1017.64 1017.68 1017.68 1017.66 1017.61 1017.55 1017.47 1017.38 1017.27 1017.14
1007.17 1006.89 1006.63 1006.43 1006.28 1006.22 1006.25 1006.40 1006.68 1007.09 1007.63 1008.30 1009.07 1009.91 1010.81 1011.71 1012.59 1013.40 1014.13 1014.75 1015.27 1015.68 1015.99 1016.23 1016.42 1016.57 1016.72 1016.86 1017.01 1017.17 1017.33 1017.48 1017.61 1017.71 1017.77 1017.79 1017.77 1017.71 1017.61 1017.48 1017.32 1017.13 1016.91
1005.78 1005.51 1005.30 1005.16 1005.11 1005.15 1005.28 1005.51 1005.85 1006.30 1006.85 1007.50 1008.25 1009.08 1009.97 1010.90 1011.84 1012.74 1013.59 1014.35 1015.00 1015.53 1015.95 1016.27 1016.49 1016.66 1016.79 1016.91 1017.02 1017.15 1017.29 1017.44 1017.59 1017.71 1017.81 1017.87 1017.87 1017.82 1017.70 1017.53 1017.32 1017.06 1016.76
1004.31 1004.07 1003.93 1003.89 1003.95 1004.12 1004.37 1004.70 1005.11 1005.59 1006.14 1006.78 1007.49 1008.29 1009.17 1010.11 1011.08 1012.06 1013.01 1013.88 1014.66 1015.31 1015.83 1016.22 1016.48 1016.66 1016.78 1016.86 1016.95 1017.04 1017.17 1017.32 1017.49 1017.65 1017.80 1017.90 1017.95 1017.92 1017.82 1017.64 1017.39 1017.08 1016.73
1002.87 1002.68 1002.62 1002.70 1002.89 1003.19 1003.56 1003.99 1004.47 1004.99 1005.55 1006.16 1006.84 1007.60 1008.45 1009.38 1010.38 1011.41 1012.43 1013.40 1014.28 1015.03 1015.63 1016.07 1016.37 1016.55 1016.65 1016.71 1016.77 1016.85 1016.96 1017.13 1017.32 1017.54 1017.74 1017.91 1018.01 1018.04 1017.97 1017.81 1017.55 1017.22 1016.84
1001.57 1001.43 1001.46 1001.65 1001.97 1002.40 1002.89 1003.42 1003.96 1004.51 1005.07 1005.67 1006.31 1007.04 1007.86 1008.78 1009.78 1010.84 1011.91 1012.94 1013.88 1014.70 1015.35 1015.83 1016.15 1016.34 1016.43 1016.47 1016.51 1016.58 1016.70 1016.88 1017.12 1017.39 1017.66 1017.90 1018.08 1018.17 1018.16 1018.03 1017.80 1017.48 1017.09
1000.49 1000.40 1000.51 1000.80 1001.23 1001.77 1002.36 1002.98 1003.58 1004.16 1004.73 1005.31 1005.93 1006.63 1007.42 1008.32 1009.32 1010.38 1011.47 1012.53 1013.51 1014.35 1015.04 1015.54 1015.87 1016.05 1016.14 1016.18 1016.22 1016.29 1016.43 1016.64 1016.93 1017.25 1017.59 1017.91 1018.16 1018.33 1018.38 1018.31 1018.13 1017.84 1017.47
999.67 999.63 999.80 1000.16 1000.68 1001.30 1001.97 1002.64 1003.29 1003.90 1004.48 1005.06 1005.67 1006.35 1007.12 1008.01 1008.99 1010.05 1011.13 1012.20 1013.18 1014.03 1014.72 1015.23 1015.56 1015.75 1015.85 1015.90 1015.95 1016.04 1016.21 1016.47 1016.80 1017.19 1017.59 1017.97 1018.29 1018.52 1018.63 1018.62 1018.50 1018.26 1017.94
999.09 999.08 999.30 999.71 1000.28 1000.94 1001.65 1002.37 1003.04 1003.68 1004.28 1004.87 1005.49 1006.17 1006.93 1007.80 1008.78 1009.82 1010.89 1011.94 1012.91 1013.75 1014.43 1014.94 1015.28 1015.49 1015.61 1015.68 1015.77 1015.90 1016.12 1016.42 1016.80 1017.23 1017.68 1018.11 1018.47 1018.75 1018.92 1018.97 1018.89 1018.72 1018.46
998.73 998.74 998.96 999.39 999.97 1000.65 1001.37 1002.09 1002.79 1003.44 1004.06 1004.67 1005.31 1006.00 1006.78 1007.65 1008.62 1009.65 1010.70 1011.73 1012.68 1013.51 1014.18 1014.70 1015.06 1015.30 1015.46 1015.58 1015.72 1015.91 1016.18 1016.53 1016.95 1017.42 1017.90 1018.35 1018.75 1019.05 1019.25 1019.33 1019.31 1019.19 1018.99
Thickness
5771 5771 5770 5769 5768 5765 5763 5762 5761 5758 5756 5752 5748 5745 5742 5741 5739 5738 5736 5734 5732 5731 5729 5728 5726 5725 5723 5722 5721 5719 5717 5715 5715 5714 5712 5713 5714 5714 5714 5714 5714 5714 5713
5764 5765 5766 5765 5763 5761 5759 5758 5757 5755 5753 5750 5747 5744 5741 5739 5736 5734 5733 5731 5729 5728 5727 5725 5724 5722 5721 5719 5718 5716 5713 5712 5711 5709 5706 5703 5705 5708 5711 5710 5710 5710 5710
5760 5760 5760 5760 5758 5756 5755 5755 5753 5752 5750 5747 5743 5739 5736 5734 5731 5729 5728 5727 5726 5724 5724 5722 5721 5719 5718 5716 5715 5714 5711 5708 5707 5707 5704 5699 5696 5700 5704 5705 5706 5706 5706
5758 5757 5756 5755 5753 5753 5752 5750 5748 5747 5745 5743 5739 5734 5730 5726 5726 5725 5724 5723 5722 5721 5720 5719 5718 5717 5715 5714 5713 5711 5709 5707 5704 5703 5702 5701 5699 5695 5695 5699 5701 5702 5702
5754 5753 5752 5751 5750 5749 5747 5745 5743 5741 5739 5737 5734 5730 5726 5723 5721 5720 5719 5718 5717 5716 5716 5715 5714 5713 5712 5711 5710 5708 5706 5705 5703 5700 5698 5697 5695 5693 5691 5690 5693 5696 5698
5748 5747 5747 5746 5744 5742 5741 5740 5736 5734 5732 5730 5728 5725 5721 5718 5716 5715 5713 5713 5711 5711 5711 5711 5710 5709 5708 5707 5706 5705 5703 5702 5700 5699 5697 5695 5692 5690 5688 5687 5687 5689 5692
5741 5740 5739 5737 5736 5734 5733 5731 5728 5725 5725 5723 5721 5719 5717 5713 5712 5711 5709 5708 5706 5705 5705 5706 5705 5704 5704 5703 5702 5701 5699 5698 5697 5695 5694 5692 5691 5690 5687 5685 5684 5684 5686
5733 5732 5732 5730 5729 5728 5726 5723 5721 5719 5718 5715 5714 5712 5711 5709 5707 5706 5705 5703 5702 5701 5701 5701 5700 5700 5699 5699 5698 5697 5695 5694 5693 5692 5690 5689 5689 5687 5685 5683 5680 5679 5680
5725 5724 5723 5722 5721 5720 5718 5717 5715 5713 5711 5710 5709 5707 5706 5704 5702 5701 5700 5698 5698 5698 5697 5696 5695 5694 5694 5693 5693 5692 5691 5690 5689 5688 5687 5686 5685 5684 5683 5682 5680 5676 5673
5716 5715 5715 5714 5713 5713 5712 5710 5710 5709 5707 5704 5703 5702 5701 5700 5698 5695 5694 5694 5693 5693 5692 5690 5689 5688 5688 5688 5687 5686 5686 5685 5684 5683 5683 5682 5681 5680 5679 5678 5676 5675 5672
5707 5706 5707 5707 5706 5705 5704 5703 5702 5701 5700 5699 5698 5696 5695 5693 5692 5690 5689 5689 5688 5687 5686 5685 5683 5682 5682 5682 5681 5681 5680 5679 5678 5678 5678 5677 5677 5676 5674 5673 5672 5670 5669
5697 5696 5696 5696 5696 5695 5695 5694 5693 5692 5692 5692 5691 5689 5688 5687 5685 5684 5683 5683 5682 5682 5681 5680 5678 5677 5677 5676 5676 5675 5675 5674 5674 5673 5673 5673 5673 5671 5670 5669 5668 5667 5665
5688 5686 5685 5686 5686 5687 5687 5686 5685 5685 5686 5685 5683 5681 5680 5679 5679 5678 5677 5677 5676 5675 5674 5673 5673 5672 5672 5671 5671 5671 5670 5670 5670 5669 5669 5669 5668 5667 5666 5665 5664 5663 5662
5677 5676 5676 5676 5677 5678 5678 5679 5678 5677 5677 5676 5675 5674 5673 5672 5672 5672 5671 5670 5669 5668 5667 5667 5667 5667 5666 5666 5666 5666 5665 5665 5665 5665 5665 5665 5664 5663 5663 5661 5659 5658 5657
5667 5666 5666 5666 5667 5668 5669 5669 5669 5668 5668 5667 5666 5666 5666 5665 5664 5664 5663 5662 5661 5661 5660 5660 5660 5661 5660 5660 5660 5661 5661 5660 5660 5660 5660 5661 5661 5661 5660 5659 5656 5654 5652
5659 5658 5657 5657 5658 5660 5660 5660 5661 5660 5659 5658 5658 5658 5657 5656 5654 5654 5654 5653 5653 5653 5653 5652 5653 5654 5655 5655 5655 5655 5655 5655 5655 5655 5655 5656 5656 5656 5655 5655 5653 5652 5650
5650 5649 5649 5648 5649 5650 5651 5651 5652 5652 5651 5650 5649 5649 5648 5647 5645 5646 5645 5645 5645 5645 5645 5645 5646 5647 5648 5649 5649 5650 5649 5649 5650 5650 5650 5651 5652 5651 5651 5650 5649 5648 5647
5642 5641 5640 5640 5640 5641 5642 5642 5642 5642 5642 5642 5641 5641 5640 5639 5638 5638 5637 5637 5637 5638 5638 5639 5639 5640 5642 5642 5643 5643 5643 5643 5645 5646 5646 5646 5646 5646 5645 5644 5644 5643 5643
5634 5633 5632 5632 5632 5633 5633 5633 5633 5634 5634 5634 5634 5633 5632 5631 5630 5629 5629 5630 5629 5630 5631 5632 5633 5633 5635 5636 5637 5637 5637 5638 5639 5640 5640 5640 5640 5641 5640 5639 5638 5638 5639
5626 5625 5625 5625 5624 5624 5624 5624 5625 5625 5626 5627 5627 5626 5625 5624 5623 5622 5622 5622 5622 5623 5624 5625 5626 5626 5628 5629 5630 5631 5632 5632 5633 5633 5634 5634 5635 5635 5634 5633 5633 5632 5633
5619 5618 5617 5617 5617 5617 5616 5616 5617 5619 5621 5621 5620 5619 5618 5617 5616 5616 5615 5614 5614 5614 5616 5617 5618 5619 5621 5622 5624 5624 5625 5627 5627 5627 5628 5629 5629 5628 5627 5628 5628 5628 5628
5611 5611 5609 5609 5609 5610 5609 5610 5611 5614 5614 5614 5613 5613 5611 5610 5611 5609 5609 5608 5606 5606 5607 5608 5609 5611 5613 5615 5616 5617 5618 5619 5620 5621 5622 5623 5623 5622 5622 5622 5622 5622 5622
5604 5603 5602 5601 5602 5602 5602 5602 5605 5606 5606 5606 5606 5605 5604 5603 5603 5602 5601 5600 5600 5599 5599 5600 5601 5603 5605 5607 5608 5609 5610 5612 5613 5615 5615 5616 5616 5616 5615 5615 5615 5615 5615
5597 5596 5595 5595 5596 5596 5596 5597 5598 5598 5598 5598 5598 5598 5597 5595 5595 5595 5594 5593 5593 5593 5593 5594 5595 5596 5598 5600 5602 5602 5603 5604 5605 5606 5607 5607 5607 5608 5608 5608 5608 5608 5608
5591 5591 5590 5589 5589 5590 5591 5592 5592 5592 5591 5592 5591 5591 5590 5588 5587 5588 5588 5588 5588 5588 5587 5589 5589 5590 5592 5595 5595 5595 5597 5598 5599 5598 5598 5599 5599 5600 5600 5600 5600 5600 5600
5585 5585 5585 5585 5584 5584 5585 5586 5587 5586 5585 5585 5584 5583 5581 5580 5579 5579 5579 5580 5580 5580 5581 5582 5582 5584 5585 5586 5586 5587 5588 5589 5589 5590 5591 5592 5593 5593 5593 5593 5593 5593 5593